Tracking 31027 objects as of 19-Jul-2025
HD Live streaming from Space Station
objects crossing your sky now

FREGAT DEB

Track FREGAT DEB now!
10-day predictions


NORAD ID: 46411
Int'l Code: 2011-037LQ
Perigee: 483.9 km
Apogee: 3,034.4 km
Inclination: 51.5 °
Period: 121.6 minutes
Semi major axis: 8130 km
RCS: Unknown
Launch date: July 18, 2011
Source: Commonwealth of Independent States (former USSR) (CIS)
Launch site: TYURATAM MISSILE AND SPACE COMPLEX (TTMTR)

Note: This is SATELLITE DEBRIS
Your satellite tracking list
ONEWEB-0142
Track 1 satellite(s)




NASA's NSSDC Master Catalog

Two Line Element Set (TLE):
1 46411U 11037LS  25199.17902792  .00005218  00000-0  15876-2 0  9996
2 46411  51.4758 127.3265 1568580 157.6720 210.0834 11.84282442209831
Source of the keplerian elements: AFSPC